Location: Brachstadt
(48.6975°N, 10.6755°E)
Time: 05:40:27
(UTC+00:00)

ATLAS 2AS CENTAUR R/B - Pass Details

Date: 18 September 2020
Orbit: 939 x 1273 km, 63.7° (Epoch: 27 October)

Event Time Altitude Azimuth Distance (km) Brightness Sun altitude
Rises 19:13:04 0° 176° (S) 4,181 5.5 -18.4°
Reaches altitude 10° 19:16:15 10° 166° (SSE) 3,241 4.9 -18.9°
Enters shadow 19:16:58 13° 163° (SSE) 3,049 4.7 -19.0°
Exits shadow 19:24:46 26° 87° (E) 2,296 3.9 -20.1°
Drops below altitude 10° 19:29:11 10° 56° (NE) 3,251 5.0 -20.8°
Sets 19:32:22 0° 46° (NE) 4,198 5.6 -21.2°
